Farmington, MO

4:04 PM CDT on June 23, 2017 (GMT -0500)
Farmington Regional

Weather History for KFAM - July, 2012

Change the Weather History Date:

Thursday, July 12, 2012

  Actual Average Record
Temperature  
Mean Temperature 78 °F -  
Max Temperature 93 °F 84 °F 98 °F (2011)
Min Temperature 64 °F 64 °F 53 °F (1999)
Cooling Degree Days 14    
Growing Degree Days 28 (Base 50)    
Moisture  
Dew Point 63 °F    
Average Humidity 61    
Maximum Humidity 94    
Minimum Humidity 30    
Precipitation  
Precipitation 0.00 in - - ()
Sea Level Pressure  
Sea Level Pressure 30.03 in    
Wind  
Wind Speed 4 mph (East)    
Max Wind Speed 15 mph    
Max Gust Speed 21 mph    
Visibility 9 miles    
Events      
Averages and records for this station are not official NWS values.
T = Trace of Precipitation, MM = Missing Value Source: NWS Daily Summary

Daily Weather History Graph

Daily Weather History Graph

Search for Another Location

Airport or City:

Trip Planner

Search our weather history database for the weather conditions in past years. The results will help you decide how hot, cold, wet, or windy it might be!

Date:

Astronomy

Jul. 12, 2012 Rise Set
Actual Time 5:50 AM CDT 8:24 PM CDT
Civil Twilight 5:19 AM CDT 8:54 PM CDT
Nautical Twilight 4:41 AM CDT 9:32 PM CDT
Astronomical Twilight 3:59 AM CDT 10:15 PM CDT
Moon 12:51 AM CDT (7/12) 2:59 PM CDT (7/12)
Length of Visible Light 15h 35m
Length of Day
14h 34m
Waning Crescent, 35% of the Moon is Illuminated
Jul 12
Waning Crescent
Jul 18
New
Jul 26
First Quarter
Aug 1
Full
Aug 9
Last Quarter

Hourly Weather History & Observations

Time (CDT) Temp. Heat Index Dew Point Humidity Pressure Visibility Wind Dir Wind Speed Gust Speed Precip Events Conditions
12:15 AM 73.4 °F - 66.2 °F 78% 30.04 in 10.0 mi NE 5.8 mph - N/A   Clear
12:35 AM 71.6 °F - 66.2 °F 83% 30.04 in 10.0 mi Calm Calm - N/A   Clear
12:55 AM 69.8 °F - 66.2 °F 88% 30.04 in 10.0 mi Calm Calm - N/A   Clear
1:15 AM 69.8 °F - 66.2 °F 88% 30.04 in 10.0 mi Calm Calm - N/A   Clear
1:35 AM 71.6 °F - 66.2 °F 83% 30.03 in 10.0 mi Calm Calm - N/A   Clear
1:55 AM 69.8 °F - 64.4 °F 83% 30.03 in 10.0 mi Calm Calm - N/A   Clear
2:15 AM 68.0 °F - 64.4 °F 88% 30.02 in 10.0 mi Calm Calm - N/A   Clear
2:35 AM 68.0 °F - 64.4 °F 88% 30.02 in 9.0 mi Calm Calm - N/A   Clear
2:55 AM 68.0 °F - 64.4 °F 88% 30.02 in 8.0 mi Calm Calm - N/A   Clear
3:15 AM 66.2 °F - 64.4 °F 94% 30.02 in 8.0 mi Calm Calm - N/A   Clear
3:35 AM 66.2 °F - 64.4 °F 94% 30.02 in 8.0 mi Calm Calm - N/A   Clear
3:55 AM 66.2 °F - 64.4 °F 94% 30.02 in 8.0 mi Calm Calm - N/A   Clear
4:15 AM 66.2 °F - 62.6 °F 88% 30.02 in 9.0 mi Calm Calm - N/A   Clear
4:35 AM 66.2 °F - 64.4 °F 94% 30.02 in 9.0 mi Calm Calm - N/A   Clear
4:55 AM 66.2 °F - 62.6 °F 88% 30.03 in 8.0 mi Calm Calm - N/A   Clear
5:15 AM 66.2 °F - 62.6 °F 88% 30.03 in 6.0 mi Calm Calm - N/A   Clear
5:35 AM 66.2 °F - 62.6 °F 88% 30.03 in 7.0 mi Calm Calm - N/A   Clear
5:55 AM 66.2 °F - 64.4 °F 94% 30.04 in 5.0 mi Calm Calm - N/A   Clear
6:15 AM 64.4 °F - 62.6 °F 94% 30.04 in 4.0 mi Calm Calm - N/A   Clear
6:35 AM 66.2 °F - 62.6 °F 88% 30.05 in 5.0 mi Calm Calm - N/A   Clear
6:55 AM 66.2 °F - 64.4 °F 94% 30.05 in 5.0 mi Calm Calm - N/A   Clear
7:15 AM 68.0 °F - 64.4 °F 88% 30.05 in 8.0 mi Calm Calm - N/A   Clear
7:35 AM 69.8 °F - 66.2 °F 88% 30.06 in 9.0 mi Calm Calm - N/A   Clear
7:55 AM 71.6 °F - 66.2 °F 83% 30.06 in 10.0 mi Calm Calm - N/A   Clear
8:15 AM 73.4 °F - 66.2 °F 78% 30.06 in 10.0 mi Calm Calm - N/A   Clear
8:35 AM 77.0 °F - 66.2 °F 69% 30.06 in 10.0 mi Calm Calm - N/A   Clear
8:55 AM 78.8 °F - 66.2 °F 65% 30.07 in 10.0 mi NNE 3.5 mph - N/A   Clear
9:15 AM 80.6 °F 82.7 °F 66.2 °F 61% 30.07 in 10.0 mi NE 5.8 mph - N/A   Clear
9:35 AM 80.6 °F 82.7 °F 66.2 °F 61% 30.06 in 10.0 mi ENE 5.8 mph - N/A   Clear
9:55 AM 82.4 °F 84.6 °F 66.2 °F 58% 30.06 in 10.0 mi NNE 3.5 mph - N/A   Clear
10:15 AM 84.2 °F 85.6 °F 64.4 °F 51% 30.06 in 10.0 mi ENE 8.1 mph - N/A   Clear
10:35 AM 84.2 °F 85.6 °F 64.4 °F 51% 30.06 in 10.0 mi NE 8.1 mph - N/A   Clear
10:55 AM 87.8 °F 88.5 °F 62.6 °F 43% 30.06 in 10.0 mi East 11.5 mph - N/A   Clear
11:15 AM 87.8 °F 89.4 °F 64.4 °F 46% 30.07 in 10.0 mi ENE 11.5 mph - N/A   Clear
11:35 AM 89.6 °F 90.1 °F 62.6 °F 40% 30.06 in 10.0 mi NE 9.2 mph - N/A   Clear
11:55 AM 89.6 °F 90.1 °F 62.6 °F 40% 30.06 in 10.0 mi NE 11.5 mph 19.6 mph N/A   Clear
12:15 PM 89.6 °F 90.1 °F 62.6 °F 40% 30.06 in 10.0 mi NE 8.1 mph - N/A   Clear
12:35 PM 89.6 °F 90.1 °F 62.6 °F 40% 30.06 in 10.0 mi East 9.2 mph 16.1 mph N/A   Clear
12:55 PM 91.4 °F 91.4 °F 60.8 °F 36% 30.05 in 10.0 mi East 11.5 mph - N/A   Clear
1:15 PM 91.4 °F 91.4 °F 60.8 °F 36% 30.04 in 10.0 mi ESE 15.0 mph 19.6 mph N/A   Scattered Clouds
1:35 PM 91.4 °F 91.4 °F 60.8 °F 36% 30.04 in 10.0 mi SE 12.7 mph - N/A   Mostly Cloudy
1:55 PM 91.4 °F 91.4 °F 60.8 °F 36% 30.04 in 10.0 mi ENE 9.2 mph - N/A   Mostly Cloudy
2:15 PM 89.6 °F 88.9 °F 59.0 °F 36% 30.03 in 10.0 mi ENE 13.8 mph 19.6 mph N/A   Mostly Cloudy
2:35 PM 91.4 °F 91.4 °F 60.8 °F 36% 30.03 in 10.0 mi East 11.5 mph 18.4 mph N/A   Partly Cloudy
2:55 PM 93.2 °F 93.3 °F 60.8 °F 34% 30.03 in 10.0 mi NE 15.0 mph 20.7 mph N/A   Clear
3:15 PM 93.2 °F 93.3 °F 60.8 °F 34% 30.02 in 10.0 mi ENE 11.5 mph 16.1 mph N/A   Clear
3:35 PM 93.2 °F 93.3 °F 60.8 °F 34% 30.01 in 10.0 mi East 15.0 mph - N/A   Clear
3:55 PM 93.2 °F 93.3 °F 60.8 °F 34% 30.01 in 10.0 mi East 10.4 mph 17.3 mph N/A   Clear
4:15 PM 93.2 °F 91.9 °F 57.2 °F 30% 30.00 in 10.0 mi East 12.7 mph 18.4 mph N/A   Partly Cloudy
4:35 PM 93.2 °F 91.9 °F 57.2 °F 30% 30.00 in 10.0 mi East 9.2 mph - N/A   Scattered Clouds
4:55 PM 93.2 °F 91.9 °F 57.2 °F 30% 30.00 in 10.0 mi East 11.5 mph 20.7 mph N/A   Scattered Clouds
5:15 PM 93.2 °F 92.6 °F 59.0 °F 32% 30.00 in 10.0 mi East 12.7 mph 19.6 mph N/A   Scattered Clouds
5:35 PM 91.4 °F 89.9 °F 57.2 °F 31% 29.99 in 10.0 mi ESE 8.1 mph - N/A   Partly Cloudy
5:55 PM 89.6 °F 90.1 °F 62.6 °F 40% 29.99 in 10.0 mi SE 6.9 mph - N/A   Mostly Cloudy
6:15 PM 87.8 °F 89.4 °F 64.4 °F 46% 30.00 in 10.0 mi SE 10.4 mph - N/A   Scattered Clouds
6:35 PM 87.8 °F 88.5 °F 62.6 °F 43% 30.00 in 10.0 mi ESE 9.2 mph - N/A   Clear
6:55 PM 87.8 °F 88.5 °F 62.6 °F 43% 30.01 in 10.0 mi SE 9.2 mph - N/A   Clear
7:15 PM 87.8 °F 88.5 °F 62.6 °F 43% 30.01 in 10.0 mi SE 8.1 mph - N/A   Clear
7:35 PM 86.0 °F 86.6 °F 62.6 °F 45% 30.01 in 10.0 mi SE 8.1 mph - N/A   Clear
7:55 PM 84.2 °F 85.0 °F 62.6 °F 48% 30.01 in 10.0 mi Calm Calm - N/A   Clear
8:15 PM 82.4 °F 83.4 °F 62.6 °F 51% 30.02 in 10.0 mi SE 4.6 mph - N/A   Clear
8:35 PM 82.4 °F 83.4 °F 62.6 °F 51% 30.03 in 10.0 mi SE 4.6 mph - N/A   Clear
8:55 PM 80.6 °F 81.8 °F 62.6 °F 54% 30.03 in 10.0 mi SE 3.5 mph - N/A   Clear
9:15 PM 80.6 °F 81.8 °F 62.6 °F 54% 30.03 in 10.0 mi SSE 5.8 mph - N/A   Clear
9:35 PM 78.8 °F - 62.6 °F 57% 30.04 in 10.0 mi SSE 4.6 mph - N/A   Clear
9:55 PM 78.8 °F - 62.6 °F 57% 30.04 in 10.0 mi Calm Calm - N/A   Clear
10:15 PM 77.0 °F - 64.4 °F 65% 30.05 in 10.0 mi SSW 3.5 mph - N/A   Clear
10:35 PM 75.2 °F - 64.4 °F 69% 30.05 in 10.0 mi Calm Calm - N/A   Clear
10:55 PM 75.2 °F - 64.4 °F 69% 30.05 in 10.0 mi Calm Calm - N/A   Clear
11:15 PM 75.2 °F - 64.4 °F 69% 30.05 in 10.0 mi Calm Calm - N/A   Clear
11:35 PM 73.4 °F - 64.4 °F 73% 30.05 in 10.0 mi Calm Calm - N/A   Clear
11:55 PM 73.4 °F - 64.4 °F 73% 30.05 in 10.0 mi Calm Calm - N/A   Clear